Location: Unspecified
(0.0000°N, 0.0000°E)
Time: 11:31:37
(UTC+00:00)

Courier 1B - Pass Details

Date: 27 November 2019
Orbit: 963 x 1209 km, 28.3° (Epoch: 07 December)

Event Time Altitude Azimuth Distance (km) Brightness Sun altitude
Rises 21:56:20 0° 237° (WSW) 4,025 11.2 -55.5°
Reaches altitude 10° 21:59:07 10° 236° (SW) 3,088 10.5 -56.1°
Enters shadow 21:59:07 10° 236° (SW) 3,087 10.5 -56.1°
Maximum altitude 22:06:52 79° 150° (SSE) 1,223 - -57.5°
Drops below altitude 10° 22:14:44 10° 64° (ENE) 3,135 - -58.9°
Sets 22:17:35 0° 63° (ENE) 4,089 - -59.5°
